Simultaneous Nadir Overpasses (SNOs) Predictions

Prediction of SNOs between LANDSAT-8 and METOP-B Satellite Orbit:

Table of predicted SNOs for the next 14.0 days since TLE Epoch: 6/14/2016
Index Date (LANDSAT-8) Time (LANDSAT-8) Lat,Lon (LANDSAT-8) SZA (LANDSAT-8 ) Date (METOP-B) Time (METOP-B) Lat,Lon (METOP-B) SZA (METOP-B ) Distance(km) Time Diff (sec)
1 06/15/2016 18:57:09 -81.08, 115.00 120.17 06/15/2016 18:56:19 -81.07, 114.86 120.21 2.46 50
2 06/15/2016 19:46:34 81.11, -76.90 59.90 06/15/2016 19:46:58 81.10, -77.05 59.89 2.69 24
3 06/18/2016 14:31:24 -81.08,-178.43 120.24 06/18/2016 14:30:41 -81.08,-178.35 120.25 1.53 43
4 06/18/2016 15:20:49 81.11, -10.37 59.83 06/18/2016 15:21:20 81.11, -10.27 59.85 1.68 31
5 06/21/2016 10:05:39 -81.07,-112.27 120.31 06/21/2016 10:05:04 -81.07,-112.32 120.33 0.95 35
6 06/21/2016 10:55:04 81.09, 55.77 59.75 06/21/2016 10:55:43 81.10, 55.74 59.77 0.67 39
7 06/24/2016 05:39:54 -81.07, -45.78 120.29 06/24/2016 05:39:27 -81.07, -45.93 120.31 2.61 27
8 06/24/2016 06:29:19 81.09, 122.24 59.78 06/24/2016 06:30:06 81.09, 122.11 59.78 2.24 47
9 06/27/2016 01:14:08 -81.09, 21.03 120.15 06/27/2016 01:13:48 -81.09, 21.19 120.15 2.65 20




NCC Satellite Simultaneous Nadir Overpasses (SNOs) Prediction Service
